Flag for Switzerland Weather past 2 weeks in Liestal, Basel-Land, Switzerland

Now
52 °F

Partly sunny.


Feels Like: 52 °F
Forecast: 45 / 64 °F
Wind: 2 mph from North

Location: Bale-Mulhouse

Current Time: Sep 5, 2015 at 8:32:59 AM

Latest Report: Sep 5, 2015 at 8:00 AM


Visibility: N/A

Pressure: 30.07 "Hg

Humidity: 77%

Dew point: 45 °F

Location of LiestalLocation

Historic Weather in Liestal — Graph

°F

Liestal temperature yesterday

Maximum temperature yesterday: 72 °F (at 3:30 PM)
Minimum temperature yesterday: 46 °F (at 6:00 AM)
Average temperature yesterday: 60 °F

Past Weeks' High & Low Weather Summary

 TemperatureHumidityPressure
High93 °F (Aug 30, 4:00 PM)100% (Aug 21, 7:00 AM)30.24 "Hg (Aug 21, 7:00 AM)
Low46 °F (Sep 4, 6:00 AM)23% (Aug 30, 5:00 PM)29.71 "Hg (Aug 24, 5:00 AM)
Average68 °F68%30.01 "Hg
* Reported Aug 21 7:00 AM — Sep 5 7:30 AM, Liestal, Weather by CustomWeather, © 2015

Note: Actual official high and low records may vary slightly from our data, if they occured in-between our weather recording intervals... More about our weather records

Advertising

Liestal weather history for previous 24 hours

 ConditionsComfort  
Time TempWeatherWind HumidityBarometerVisibility
7:30 AM
Sat, Sep 5
50 °FPassing clouds.1 mph82%30.04 "HgN/A
7:00 AM52 °FPassing clouds.No wind77%30.04 "HgN/A
6:30 AM50 °FPassing clouds.2 mph88%30.04 "HgN/A
6:00 AM50 °FClear.3 mph88%30.04 "Hg10 mi
5:30 AM50 °FClear.3 mph88%30.04 "Hg10 mi
5:00 AM48 °FPassing clouds.3 mph87%30.04 "HgN/A
4:30 AM52 °FPassing clouds.3 mph82%30.04 "HgN/A
4:00 AM52 °FClear.No wind77%30.04 "Hg10 mi
3:30 AM54 °FClear.No wind72%30.04 "Hg10 mi
3:00 AM54 °FClear.2 mph72%30.04 "Hg10 mi
2:30 AM54 °FClear.8 mph72%30.04 "Hg10 mi
2:00 AM55 °FClear.7 mph67%30.04 "Hg10 mi
1:30 AM57 °FClear.6 mph63%30.04 "Hg10 mi
1:00 AM57 °FClear.6 mph63%30.04 "Hg10 mi
12:30 AM57 °FPassing clouds.6 mph63%30.04 "HgN/A
12:00 AM55 °FPassing clouds.6 mph67%30.04 "HgN/A
11:30 PM
Fri, Sep 4
57 °FClear.5 mph63%30.04 "Hg10 mi
11:00 PM57 °FPassing clouds.6 mph63%30.01 "HgN/A
10:30 PM61 °FClear.7 mph55%30.01 "Hg10 mi
10:00 PM61 °FPassing clouds.7 mph52%30.01 "HgN/A
9:30 PM61 °FPassing clouds.8 mph52%30.01 "HgN/A
9:00 PM63 °FPassing clouds.7 mph52%30.01 "HgN/A
8:30 PM63 °FSunny.9 mph49%29.98 "Hg10 mi
8:00 PM64 °FPassing clouds.7 mph46%29.98 "HgN/A
7:30 PM66 °FPassing clouds.7 mph40%29.98 "HgN/A
7:00 PM68 °FPassing clouds.9 mph38%29.98 "HgN/A
6:30 PM68 °FPassing clouds.9 mph38%29.98 "HgN/A
6:00 PM68 °FPassing clouds.8 mph38%29.98 "HgN/A
5:30 PM70 °FPassing clouds.7 mph38%29.98 "HgN/A
5:00 PM72 °FPassing clouds.8 mph36%29.98 "HgN/A
4:30 PM70 °FPassing clouds.10 mph35%29.98 "HgN/A
4:00 PM70 °FPassing clouds.12 mph38%29.98 "HgN/A
3:30 PM72 °FPassing clouds.10 mph36%30.01 "HgN/A
3:00 PM68 °FPassing clouds.12 mph40%30.01 "HgN/A
2:30 PM70 °FPassing clouds.10 mph38%30.01 "HgN/A
2:00 PM68 °FPassing clouds.9 mph40%30.01 "HgN/A
1:30 PM70 °FPassing clouds.10 mph40%30.01 "HgN/A
1:00 PM70 °FPassing clouds.9 mph40%30.01 "HgN/A
12:30 PM68 °FPassing clouds.8 mph43%30.04 "HgN/A
12:00 PM68 °FPassing clouds.6 mph43%30.04 "HgN/A
11:30 AM66 °FPassing clouds.9 mph40%30.04 "HgN/A
11:00 AM66 °FPassing clouds.7 mph43%30.04 "HgN/A
10:30 AM64 °FPassing clouds.5 mph52%30.04 "HgN/A
10:00 AM63 °FPassing clouds.5 mph56%30.04 "HgN/A
9:30 AM61 °FPassing clouds.2 mph63%30.04 "HgN/A
9:00 AM57 °FPassing clouds.2 mph77%30.04 "HgN/A
8:30 AM54 °FSunny.3 mph82%30.04 "Hg10 mi
8:00 AM50 °FSunny.No wind88%30.04 "Hg10 mi
Weather by CustomWeather, © 2015

See weather overviewHow to use our weather pages